STARLINK-1770, 46383

Orbit data source: Space-Track

STARLINK-1770, 46383 is a payload satellite owned by SpaceX/Seattle (US) in LEO that was launched on Thu, 03 Sep 2020 UTC via an FALCON 9 launch vehicle from the Air Force Eastern Test Range (AFETR). Payloads include a variety of satellites, spacecraft, and rockets equipped with specific instruments for various scientific and technological missions. These include communications satellites like Starlink; space stations such as the ISS; scientific satellites like the Hubble; Earth observation satellites from companies like Planet Labs, Umbra, and HawkEye 360; GPS; miniature CubeSats for education and research; and military/defense satellites.

Loading next visibility...
STARLINK-1770 details
Identifier
46383, 2020-062BL
Orbit
LEO
Last TLE update16 hours ago
Origin
Flag of USSpaceX/Seattle (US)
ManufacturerSpaceX/Seattle
MissionOperational Commercial Communications
Bus & MotorSTARLINK, Unknown motor
Mass260 kg wet, ~248 kg dry
Launch date (UTC)
2020-09-03 (4 years ago)
Launch vehicle
FALCON 9
Launch site
Air Force Eastern Test Range (AFETR)
Object type
Payload
Rocket body
Debris
Shape & HBRBox + 1 Pan, 8.86 m
Radar Cross Section13.562 m², Large (>1 m²)

Expand to show TLE details & history

TLE from 16 hours ago
0 STARLINK-1770
1 46383U 20062BL  24361.25970192  .00001237  00000-0  10194-3 0  9996
2 46383  53.0525 184.8048 0001500  86.1509 273.9652 15.06403123238400
Epoch: 2024-12-26T06:13Z
Definitive object data (Epoch: 2024-12-26T06:13:58.245Z)
Latitude
Longitude-3.92954°
Altitude548.009 km
Speed7.589 km/s
True Right ascension12h 19m 13s
True Declination0° 00' 00"
Sunlit
Object was in daylight at TLE epoch
Visualization TLE readout
Latitude-53.16474°
Longitude-93.80536°
Altitude566.721 km
Speed7.577 km/s
Apparent Right ascension07h 51m 27s
Apparent Declination-48° 37' 09"
Sunlit
Object is in daylight
Visualization observer readout
Local Sidereal Time21:08:58
Azimuth128.636° SE
Elevation-73.69°
Doppler factor1
Orbital elements
Apogee altitude548.512 km
Perigee altitude546.434 km
Semi-major axis6,925.61 km
Eccentricity0.00015
Inclination53.0525°
RAAN184.8048°
Arg. of periapsis86.1509°
True anomaly273.94805°
Mean anomaly273.9652°
Eccentric anomaly273.95663°
Mean motion3.76579 °/min
BSTAR0.00010194
Orbital period95.6 mins
Loading maneuver chart data...
Loading historical data...
Loading historical data...
Loading historical data...
Loading historical data...
Loading historical data...
Loading historical data...
Loading historical data...

STARLINK-1770 Visibility forecast

Observer location: undefined°, undefined

Span
Click to sort rows by Start time (UTC) header in descending order
Start Az.
Max El. time (UTC)
Max El. Az.
Max El.
End time (UTC)
End Az.
7 mins2024-12-26 22:40:55.783Z295.332° NW2024-12-26 22:43:55.783Z241.569° WSW33.951°2024-12-26 22:47:55.783Z155.403° SSE
5 mins2024-12-27 14:14:55.783Z184.348° SSW2024-12-27 14:16:55.783Z138.817° SSE29.202°2024-12-27 14:19:55.783Z73.347° E
6 mins2024-12-27 15:53:55.783Z268.731° W2024-12-27 15:56:55.783Z340.264° N30.454°2024-12-27 15:59:55.783Z34.401° NE
6 mins2024-12-27 20:55:55.783Z331.545° NNW2024-12-27 20:58:55.783Z49.883° ENE31.071°2024-12-27 21:01:55.783Z99.619° ESE
|